{"data":{"norad_id":66794,"intl_designator":"2025-278D","name":"STARLINK-36062","alt_names":[],"object_type":"PAYLOAD","status":"ACTIVE","operator":null,"country":"US","launch_date":"2025-12-01","launch_site_code":"AFETR","launch_vehicle":null,"mission":null,"orbit_class":"UNKNOWN","rcs_meters":null,"size_class":null,"mass_kg":null,"dimensions":null,"purposes":["comms"],"wikipedia_slug":null,"has_3d_model":false,"image_url":null,"decayed_at":null,"tle_current":{"epoch":"2026-05-25T02:33:20.333376Z","epoch_age_seconds":66634,"freshness":"FRESH","line1":"1 66794U 25278D   26145.10648534  .00014726  00000+0  54339-3 0  9991","line2":"2 66794  43.0041  43.0180 0001400 275.3144  84.7547 15.27591997 26898","mean_motion":15.27591997,"eccentricity":0.00014,"inclination_deg":43.0041,"raan_deg":43.018,"arg_perigee_deg":275.3144,"mean_anomaly_deg":84.7547,"bstar":0.00054339,"rev_number":2689,"period_min":94.266008386269,"perigee_km":482.05261191665,"apogee_km":483.97373396507,"semimajor_km":6861.1501729409,"source":"CELESTRAK","updated_at":"2026-05-25T13:38:21.325493Z"}}}